User: anonymous
Location: Desert Center
(33.7130°N, 115.4010°W)
Time: 01:25:25
(UTC-07:00)
Language:

USA 215 - Orbit

View from above orbital plane
View from above orbital plane
View from above satellite
View from above satellite

Ground track
Ground track

The orbit data is extracted from the following two-line orbital elements,

1 37162U 10046A   14107.89029741 0.00000000  00000-0  00000-0 0    06
2 37162 122.9963 186.9267 0003000 108.3393 251.6607 13.41440234    05
Epoch (UTC): 17 April 2014 21:22:01
Eccentricity: 0.0003000
inclination: 122.9963°
perigee height: 1101 km
apogee height: 1106 km
right ascension of ascending node: 186.9267°
argument of perigee: 108.3393°
revolutions per day: 13.41440234
mean anomaly at epoch: 251.6607°
orbit number at epoch: 0

The dashed part of the orbit path shows where the satellite is in the earth's shadow,  

DLR